Epoch 2014 Jan. 23.0 TT = JDT 2456680.5 T 2014 Jan. 6.13054 TT MPC q 2.3760327 (2000.0) P Q n 0.11773371 Peri. 24.86445 +0.60896334 +0.74057479 a 4.1228939 Node 283.95288 -0.76789120 +0.46067072 e 0.4236978 Incl. 17.02189 -0.19876307 +0.48921516 P 8.37 From 124 observations 2005 June 3-2014 Oct. 28, mean residual 0".5.
m1 = 13.5 + 5 logΔ + 10.0 log r